RH
21 17 13 10 9 10 11 10 10 10 9 8 8 8 8 8 8 8 8 7 8 8 8 8 8 8 8 8 8 8 8 8 8 8 8 8 8 8 8 8 8 8 8 8 8 8 8 8 8 8 8 8 9 9 8 9 8 8 8 11 14 18 23 25 26 26 26 26 26 25 25 24 23 23 23 23 24 25 26 27 28 28 27 27 26 26 25 25 25 26 26 26 26 26 26 25 25 24 24 24 25 25 25
19 16 11 10 10 10 10 10 10 10 9 8 8 8 8 8 8 8 8 8 8 8 8 9 9 9 9 9 9 9 9 9 9 9 9 9 9 9 9 9 8 8 8 8 8 8 8 9 9 9 9 9 9 9 9 9 9 8 8 10 13 17 22 25 26 26 25 25 25 25 23 22 22 22 21 21 22 23 23 25 26 27 28 27 27 27 27 26 26 26 26 26 27 27 26 26 26 25 25 25 25 25 25
18 14 10 10 11 11 10 10 10 10 10 9 9 9 8 9 8 8 8 8 9 9 9 9 10 10 10 10 10 10 10 10 10 10 10 9 9 9 9 9 9 9 9 9 9 8 8 8 8 8 9 9 9 9 9 9 9 9 9 9 12 15 21 23 24 25 25 24 23 22 21 21 21 20 19 19 20 20 21 23 24 24 25 26 26 26 27 27 27 27 26 26 27 27 27 27 27 26 26 25 26 26 26
17 13 11 12 12 12 11 11 11 11 10 10 9 9 9 9 9 9 9 9 9 10 10 10 10 10 11 11 11 10 10 10 10 10 10 10 10 10 10 9 9 9 9 9 9 9 9 8 9 8 8 8 8 9 9 9 9 9 9 9 10 14 19 19 22 24 23 23 22 20 20 19 19 19 18 18 18 19 19 20 21 22 22 23 24 24 24 26 27 27 25 25 26 27 27 27 27 27 26 26 26 27 27
16 13 12 13 14 13 12 12 11 11 11 10 10 10 9 9 10 10 10 10 10 10 11 11 11 11 11 11 11 11 11 11 11 11 11 11 10 10 10 10 10 10 9 9 9 9 9 9 9 9 9 9 9 9 9 9 9 9 9 9 10 11 13 15 18 20 20 19 19 18 18 17 17 17 17 18 18 18 18 18 19 20 20 20 21 22 23 24 26 26 26 25 26 27 26 27 27 27 27 27 27 27 27
15 13 13 14 14 14 13 13 12 12 12 11 11 11 10 10 10 10 11 11 11 11 11 11 11 11 11 11 12 12 11 11 11 11 11 11 11 11 11 10 10 10 10 10 10 10 9 9 9 9 9 9 9 9 9 9 9 9 9 9 10 11 11 12 14 15 16 17 17 16 16 16 15 15 16 16 16 17 17 17 18 18 18 18 19 20 22 23 24 24 25 25 26 26 25 27 27 28 27 27 27 27 28
15 14 13 15 15 15 14 14 13 12 12 12 12 11 11 11 11 11 11 11 11 12 12 12 12 12 12 12 12 12 12 12 12 12 11 11 11 11 11 11 11 11 11 11 10 10 10 10 10 10 10 10 10 10 10 10 10 10 10 9 11 12 11 11 12 13 14 14 15 14 14 14 14 14 14 14 15 15 16 16 16 17 17 17 18 18 19 20 22 23 24 26 26 26 26 26 27 27 28 27 27 28 28
14 14 14 15 16 16 15 14 14 13 13 13 13 12 12 12 12 12 12 12 12 12 12 12 12 12 13 13 13 13 13 12 12 12 12 12 12 12 12 12 12 12 12 11 11 11 11 11 11 11 11 11 11 11 11 10 10 10 10 10 11 12 12 12 12 12 12 13 13 13 13 13 13 13 13 13 14 14 14 14 15 15 16 16 17 17 18 18 19 21 23 25 25 25 25 25 25 26 27 27 27 27 28
15 14 14 15 16 16 16 15 14 14 14 13 13 13 13 13 13 13 13 13 13 13 13 13 13 13 13 13 13 13 13 13 13 13 13 13 13 13 13 13 12 12 12 12 12 12 12 12 12 12 12 12 12 12 11 11 11 11 11 11 12 13 13 13 14 13 13 13 13 13 13 12 12 12 12 13 13 13 13 13 13 14 14 15 16 17 18 18 18 19 22 24 24 24 25 24 24 25 26 26 27 27 28
15 14 14 15 16 16 16 15 15 14 14 14 14 14 14 14 14 13 13 13 13 13 13 13 13 13 13 13 13 13 13 13 13 13 13 13 13 13 13 13 13 13 13 13 13 13 13 13 13 13 13 12 12 12 12 12 12 12 12 12 14 15 16 15 15 15 14 14 14 14 13 13 13 13 12 13 13 14 14 13 13 13 13 14 15 17 18 18 18 17 19 23 24 25 24 25 24 24 24 25 25 26 27
15 15 14 15 15 16 16 16 16 16 15 15 14 14 14 14 14 14 14 14 14 13 13 13 13 13 13 13 13 13 13 13 13 13 13 13 13 13 13 13 13 13 13 13 13 13 13 13 13 13 13 13 13 13 13 13 12 12 12 12 14 15 16 16 16 15 14 14 14 14 14 14 14 13 13 13 14 14 15 14 14 13 13 13 14 15 17 18 18 17 16 20 23 25 26 26 26 25 25 24 24 25 26
15 15 15 15 15 15 16 16 16 17 16 16 15 15 14 14 14 14 14 14 13 13 13 13 13 13 13 13 13 13 13 13 13 13 13 13 13 13 13 13 13 13 13 13 13 13 13 13 13 13 13 13 13 13 13 13 13 13 12 12 13 13 14 16 15 14 14 14 14 14 14 13 14 14 14 13 14 14 15 15 15 14 14 13 14 14 16 17 18 17 16 16 19 24 27 27 27 27 27 25 25 25 25
16 15 15 15 15 15 15 16 16 17 17 17 16 15 15 14 14 14 14 13 13 13 13 13 13 13 13 13 13 13 13 13 13 13 13 13 13 13 12 12 12 12 12 12 12 12 12 12 13 13 13 13 13 13 12 12 12 12 12 12 12 13 13 14 14 14 14 14 14 14 14 14 13 13 14 14 14 14 15 16 16 16 15 14 14 14 15 16 17 17 17 16 16 19 24 27 28 28 27 27 26 26 26
16 16 15 15 15 15 15 15 16 17 18 17 16 15 15 14 14 14 14 13 13 13 12 12 12 12 12 12 12 12 12 12 12 12 12 12 12 12 12 12 12 12 12 12 12 12 12 12 12 12 12 12 12 12 12 12 12 12 12 12 13 13 13 13 13 14 14 14 14 14 14 14 14 14 14 14 14 14 14 16 17 16 16 15 15 15 15 16 16 17 17 17 16 16 19 24 28 29 28 28 28 27 26
17 16 16 15 15 15 15 15 16 17 18 17 17 16 15 15 14 14 13 13 13 13 12 12 12 12 12 12 12 12 12 12 12 12 12 12 12 12 12 12 12 12 12 12 12 12 12 12 12 12 12 12 12 12 12 12 12 12 12 13 13 13 13 13 13 13 13 13 14 14 14 14 14 14 14 14 14 14 14 15 16 17 17 16 16 15 15 16 16 16 17 17 17 16 17 20 25 28 28 28 28 27 26
17 17 17 16 16 16 15 16 16 17 17 17 17 16 16 15 15 14 13 13 13 12 12 12 12 12 12 12 12 12 12 12 12 12 12 12 12 12 11 11 11 11 12 12 12 12 12 12 12 12 12 12 12 12 12 12 12 12 12 13 13 13 13 13 13 13 13 13 14 14 14 14 15 15 15 14 14 14 14 14 15 16 17 16 16 16 16 16 17 17 17 17 17 17 16 18 21 25 27 29 28 27 27
17 17 17 17 16 16 16 16 16 17 17 17 17 17 16 16 15 15 14 14 13 13 13 12 12 12 12 12 12 12 12 12 12 12 12 12 12 11 11 11 11 11 11 11 11 11 11 12 12 12 12 12 12 12 12 12 12 12 12 12 13 13 13 13 13 13 13 14 14 14 14 15 15 15 15 15 15 14 14 14 15 15 16 16 16 16 17 17 17 17 18 17 17 17 17 17 20 23 26 28 28 27 27
17 17 17 17 17 17 17 17 17 17 17 17 17 17 17 16 16 15 15 14 14 13 13 13 13 12 12 12 12 12 12 12 12 12 12 12 12 12 11 11 11 11 11 11 11 11 11 11 11 11 12 12 12 12 12 12 12 12 12 12 12 12 13 13 13 13 13 14 14 14 14 15 15 15 16 16 16 15 15 15 15 15 15 15 16 16 17 17 18 18 18 18 18 17 18 18 18 20 23 26 27 28 28
17 17 17 18 18 18 18 18 17 17 17 17 18 18 17 17 16 16 16 15 15 14 14 14 13 13 13 13 12 12 12 12 12 12 12 12 12 12 12 12 12 12 11 11 11 11 11 11 11 11 11 12 12 12 12 12 12 12 12 12 12 12 13 13 13 13 13 14 14 14 14 15 15 15 16 16 16 16 16 15 15 15 15 15 16 16 16 17 18 19 19 19 18 18 18 18 19 19 21 23 25 27 28
17 18 18 18 18 19 19 18 18 18 18 18 18 18 18 18 17 17 17 16 16 15 15 15 14 14 14 13 13 13 13 12 13 12 12 12 12 12 12 12 12 12 12 12 12 12 12 12 12 12 12 12 12 12 12 12 12 12 12 12 12 13 13 13 13 13 13 14 14 14 14 15 15 16 16 16 17 17 16 16 16 16 16 16 16 16 17 18 18 19 20 20 19 19 18 19 19 19 20 21 24 27 28
18 18 18 19 19 19 19 19 19 19 19 19 19 19 19 18 18 18 17 17 17 17 16 16 16 15 15 14 14 13 13 13 13 13 13 13 13 13 13 13 13 13 12 12 12 12 12 12 12 12 12 12 12 12 12 12 13 13 13 13 13 13 13 13 13 13 13 13 14 14 14 14 15 15 16 16 16 17 17 17 17 17 16 16 16 16 17 18 19 20 20 20 20 19 19 19 19 20 20 21 23 26 28
19 19 19 19 19 19 19 19 19 19 19 19 19 19 19 18 18 18 18 18 18 17 17 17 17 17 16 16 15 15 14 14 14 14 14 14 14 13 13 13 13 13 13 13 13 13 13 13 13 13 13 13 13 13 13 13 13 13 13 13 13 13 13 13 13 13 13 13 13 14 14 14 15 15 16 16 16 17 17 17 17 17 17 17 17 17 17 18 19 20 21 21 21 20 20 20 20 20 20 22 25 28 29
19 19 19 19 19 19 19 19 19 19 19 19 19 19 19 19 18 18 18 18 18 18 18 18 18 18 17 17 17 16 16 15 15 15 15 15 15 15 14 14 14 14 14 14 14 14 13 13 13 13 13 13 13 13 13 13 13 13 13 13 13 13 13 13 13 13 14 14 14 14 14 15 15 15 16 16 17 17 17 18 18 18 18 18 18 18 18 18 19 20 21 21 21 21 21 21 21 21 21 23 26 29 31
19 19 19 19 19 19 20 20 19 19 19 19 19 19 19 19 19 19 19 19 19 19 19 19 19 19 19 19 18 18 18 17 17 17 17 16 16 16 16 15 15 15 15 15 15 14 14 14 14 14 14 14 14 14 14 14 14 14 14 14 14 14 14 14 14 14 14 14 14 14 15 15 15 16 16 17 17 18 18 18 19 19 19 19 19 19 19 19 20 21 21 21 22 22 23 23 23 23 22 24 27 30 32
20 20 20 19 19 20 20 20 20 20 20 20 20 20 20 20 20 20 19 20 20 20 20 20 20 20 20 20 20 20 19 19 19 18 18 18 18 18 17 17 17 16 16 16 16 15 15 15 15 15 14 14 14 14 14 14 14 14 14 14 14 14 14 15 15 15 15 15 15 15 15 16 16 17 17 18 18 19 19 20 20 21 21 21 21 21 20 20 20 20 21 21 22 23 25 25 25 25 24 26 28 31 33
20 20 20 20 20 20 20 20 20 20 20 20 20 20 20 20 20 20 20 20 20 20 20 20 21 21 21 21 21 21 21 21 21 20 20 20 19 19 19 19 18 18 17 17 17 16 16 16 16 15 15 15 15 15 15 15 15 15 15 15 15 15 15 15 15 15 15 16 16 16 17 17 18 18 19 19 20 20 20 21 22 22 22 23 23 23 22 21 21 21 21 22 24 26 28 28 28 27 26 26 28 30 33
21 20 20 20 20 20 20 20 20 20 21 21 21 21 21 21 20 20 20 20 21 21 21 21 21 21 22 22 22 22 22 22 22 22 22 21 21 21 21 20 20 19 19 19 18 18 17 17 17 17 16 16 16 15 16 16 16 16 16 16 16 16 16 16 16 16 17 17 17 18 18 18 19 20 20 20 21 21 22 22 23 24 25 25 25 25 24 23 23 22 22 24 27 29 31 30 30 29 28 27 28 30 34
21 21 21 21 21 20 20 20 21 21 21 21 21 21 21 21 21 21 21 21 21 21 21 22 22 22 23 23 23 23 23 23 24 23 23 23 23 22 22 22 21 21 21 20 20 20 19 19 18 18 17 17 17 16 16 16 16 16 16 16 16 17 17 17 17 17 18 18 18 19 19 20 20 21 21 22 22 23 23 23 24 25 27 26 26 26 26 26 25 24 24 25 27 30 32 32 32 31 30 29 29 31 33
22 22 22 21 21 21 21 21 21 21 21 21 21 22 22 22 21 21 21 21 21 22 22 22 22 23 23 23 24 24 24 24 24 24 24 24 24 24 24 23 23 22 22 22 22 21 21 20 20 19 19 19 18 18 17 17 17 17 17 17 17 17 18 18 18 19 19 19 20 20 21 21 22 22 23 23 23 24 24 25 25 26 28 28 28 28 27 27 27 27 26 26 28 31 34 34 34 33 32 32 31 32 34
23 23 23 23 22 22 22 21 21 21 21 22 22 22 22 22 22 22 22 22 22 22 22 22 23 23 23 24 24 25 25 25 25 25 25 25 25 25 25 25 24 24 24 23 23 23 22 22 21 21 21 20 19 19 19 18 18 18 18 18 19 19 19 19 20 20 20 20 21 21 22 22 23 23 23 24 25 25 25 26 26 27 29 30 30 30 29 29 29 28 28 28 29 32 35 36 36 35 34 33 33 33 34
24 24 24 24 23 23 22 22 22 22 22 22 22 22 22 22 22 22 22 22 22 22 22 23 23 23 24 24 25 25 25 25 25 25 25 25 25 25 25 25 25 25 25 25 24 24 24 23 23 22 22 21 21 20 20 20 20 20 19 20 20 20 20 21 21 21 21 22 22 22 23 23 24 24 24 25 26 26 27 28 28 29 30 31 32 31 31 30 30 30 29 29 30 31 34 37 37 37 36 35 34 33 35
24 25 25 25 25 24 24 23 23 23 23 23 23 23 23 23 23 22 22 22 23 23 23 23 23 24 24 25 25 25 25 25 25 25 25 25 26 26 26 26 26 26 26 25 25 25 25 24 24 24 23 23 22 22 21 21 21 21 21 21 21 22 22 22 22 23 23 23 23 24 24 24 25 25 26 26 27 28 28 29 30 30 30 32 32 32 32 32 31 31 31 31 31 32 34 36 37 37 37 35 34 34 35
24 25 26 26 26 26 25 25 25 24 24 24 24 23 23 23 23 23 23 23 23 23 23 23 24 24 24 25 25 26 26 26 26 26 26 26 26 26 26 26 26 26 26 26 26 26 26 25 25 25 24 24 24 23 23 23 23 22 22 23 23 23 23 24 24 24 24 24 25 25 25 26 26 26 27 27 28 28 29 30 30 31 31 32 32 33 33 33 33 33 33 33 33 33 35 36 37 37 36 37 36 34 34
24 25 26 27 27 27 28 27 27 27 26 26 26 25 25 25 24 24 24 24 24 24 24 24 24 25 25 25 25 26 26 26 26 26 26 26 26 26 26 26 26 27 27 26 27 26 26 26 26 26 25 25 25 25 24 24 24 24 24 24 25 25 25 25 25 26 26 26 26 26 27 27 27 28 28 29 29 29 30 30 31 32 32 32 33 33 33 33 33 33 34 34 35 35 35 35 35 36 36 35 35 34 34
24 25 26 27 27 28 28 29 29 29 29 28 28 28 27 27 27 26 26 26 26 25 25 25 25 25 25 25 26 26 26 26 26 26 26 26 27 26 27 27 27 27 27 27 27 27 27 26 26 26 26 26 26 26 26 26 26 26 26 26 26 27 27 27 27 28 28 28 28 28 29 29 29 29 30 30 30 31 31 31 32 33 33 33 33 33 33 33 33 34 34 35 35 35 34 33 33 34 35 34 34 34 34
24 25 26 26 27 28 28 29 29 30 30 30 30 30 30 29 29 29 28 28 28 27 27 27 27 26 26 26 26 26 26 26 26 26 26 27 27 27 27 27 27 27 27 27 27 27 27 27 27 27 27 27 27 27 27 27 27 27 28 28 28 28 29 29 29 29 30 30 30 30 31 31 31 31 31 32 32 32 32 33 33 34 34 34 34 34 34 34 33 33 33 34 34 34 32 32 32 32 33 34 34 33 32
25 25 26 26 27 27 28 28 29 30 30 30 31 31 31 31 30 30 30 30 30 29 29 29 28 28 27 27 27 27 27 27 27 27 27 27 27 27 27 27 27 27 27 27 27 27 27 27 27 27 27 27 27 28 28 28 28 29 29 30 30 30 30 31 31 31 32 32 33 33 33 33 33 33 33 33 34 34 34 34 34 34 35 35 35 35 35 34 33 33 32 31 31 31 30 30 30 31 31 31 30 29 29
26 26 26 26 27 27 27 28 28 29 30 30 30 31 31 31 31 31 31 31 31 31 30 30 30 29 29 28 28 28 27 28 27 27 27 28 28 28 28 28 28 28 28 27 27 27 27 27 27 27 28 28 28 29 29 29 30 30 31 31 32 32 32 33 33 34 34 35 36 36 36 36 36 36 36 36 36 36 36 36 36 36 36 35 35 35 34 34 33 32 31 29 28 27 25 25 25 26 26 26 26 26 28
27 27 27 27 27 27 27 28 28 29 29 30 30 30 31 31 31 31 31 31 31 31 31 31 31 30 30 30 29 29 29 28 28 28 28 29 29 29 29 29 29 29 28 28 28 27 27 27 27 28 28 28 29 29 30 30 31 31 32 33 33 34 34 35 36 37 37 38 38 39 39 39 39 39 38 38 38 38 38 38 37 37 36 35 35 34 33 32 31 30 29 27 26 24 23 22 22 22 22 23 24 26 28
28 28 28 28 27 27 27 28 28 29 29 29 30 30 30 30 30 30 31 31 31 31 31 31 31 31 31 31 31 30 30 30 30 30 30 30 30 30 30 30 30 30 30 29 29 29 28 28 28 28 28 29 29 30 31 31 32 33 33 34 35 35 36 37 38 39 40 40 41 42 42 42 42 42 41 40 40 40 40 39 38 37 37 35 33 32 30 29 28 27 27 25 24 23 22 21 21 20 21 22 24 27 30
28 28 28 28 28 28 28 28 29 29 29 29 29 29 30 30 30 30 30 30 30 30 31 31 31 31 31 31 31 31 31 31 31 31 31 31 31 31 31 32 31 31 31 31 31 30 30 30 29 29 30 30 30 31 31 32 33 33 34 35 36 37 38 39 40 41 42 43 44 44 44 44 44 44 44 43 42 42 41 40 39 38 36 34 32 30 28 27 26 24 24 23 22 22 21 21 21 21 21 22 25 28 30
27 28 28 28 28 28 28 28 29 29 29 29 29 29 29 29 30 30 30 30 30 30 30 31 31 31 31 31 31 31 31 31 31 32 32 32 32 32 32 32 32 32 32 32 32 32 31 31 31 31 31 31 31 31 32 33 33 34 35 36 37 38 39 40 42 43 44 45 45 46 46 46 46 46 46 45 44 43 42 41 39 37 35 33 31 29 27 25 23 22 22 22 21 21 21 21 21 21 22 23 25 28 30
28 27 28 28 28 28 28 29 29 29 29 29 29 29 29 29 29 30 30 30 30 30 30 30 31 31 31 31 31 31 31 31 31 32 32 32 32 32 32 32 33 32 33 33 33 33 33 33 33 33 33 32 33 32 33 33 34 35 36 36 37 39 40 41 43 44 45 46 46 47 47 48 48 47 47 46 46 45 43 41 39 36 34 32 30 28 26 24 22 21 20 20 21 22 22 22 22 22 23 24 26 28 29
28 27 28 28 28 28 28 28 29 29 29 29 29 29 30 29 30 30 30 30 30 30 30 30 30 31 31 31 31 31 31 31 31 32 32 32 32 32 32 32 33 33 33 33 33 34 34 34 34 34 34 34 34 34 35 35 35 36 36 37 38 39 40 42 43 45 46 46 47 48 48 48 48 48 48 47 47 45 44 41 39 36 33 31 29 27 25 23 21 20 20 20 21 21 22 22 23 23 24 25 26 27 28
28 28 28 28 28 28 28 29 29 29 30 30 30 30 30 30 30 30 30 30 30 30 30 30 31 31 31 31 31 32 32 32 32 33 33 33 33 33 33 33 33 33 34 34 34 35 35 35 35 35 35 36 36 36 36 37 37 37 38 38 39 40 41 42 44 45 46 47 48 48 48 49 49 49 49 48 47 46 44 41 39 36 33 31 28 26 24 22 21 20 20 20 21 21 22 22 23 24 25 26 26 27 27
29 29 29 29 29 29 29 29 30 30 30 30 30 30 30 31 31 31 31 31 31 31 31 32 32 32 33 33 33 33 33 34 34 34 34 34 34 34 34 34 35 35 35 36 36 36 37 37 37 37 37 37 38 38 38 39 39 39 39 40 40 41 42 43 45 46 47 47 48 48 49 49 49 50 50 49 48 47 45 42 39 36 33 30 28 25 23 22 21 20 20 20 21 22 22 23 24 25 26 27 27 27 27
29 29 30 30 30 30 30 31 31 31 31 31 31 31 31 31 31 32 32 32 33 33 33 33 34 34 35 35 35 35 35 35 36 36 36 36 36 36 36 36 37 37 37 37 37 38 38 38 39 39 39 39 40 40 40 40 41 41 41 41 42 43 43 44 45 47 48 48 48 48 49 49 50 50 51 50 49 47 45 43 40 37 34 31 28 25 23 22 21 20 20 20 21 22 23 24 25 26 27 27 27 27 27
30 31 31 31 31 32 32 32 32 32 32 32 32 32 32 32 33 33 33 34 34 35 35 35 36 36 36 36 36 37 37 37 37 38 38 38 38 38 38 38 38 38 38 38 39 39 39 40 40 41 41 41 42 42 42 42 42 43 43 43 44 44 45 46 47 48 48 48 48 48 48 49 50 50 51 50 49 48 46 43 41 38 34 31 28 25 23 22 21 21 20 21 21 22 23 24 26 27 28 28 28 27 27
32 32 32 32 32 33 33 33 33 33 33 33 33 33 33 33 34 34 35 35 36 36 36 36 37 37 38 38 37 37 38 38 38 39 39 39 39 38 38 38 38 38 38 39 39 40 41 41 41 42 42 43 43 43 43 43 44 44 44 45 45 46 47 48 48 49 49 49 49 49 49 49 50 50 50 50 49 48 46 45 42 39 36 32 28 25 23 22 21 21 21 21 22 23 24 25 27 28 29 28 28 28 27
32 32 32 32 32 33 32 33 33 33 33 33 33 33 33 33 34 34 35 35 35 35 36 36 36 36 37 37 37 37 37 38 38 38 39 38 38 38 37 37 37 38 38 39 39 40 41 41 42 42 43 43 44 44 44 45 45 46 46 47 47 48 49 49 50 50 50 50 50 49 49 49 50 50 49 49 48 47 47 45 43 41 37 32 28 25 23 22 22 21 21 22 23 24 25 26 28 29 29 29 28 27 27
32 32 32 32 32 31 31 31 31 31 31 31 31 31 31 32 32 32 32 33 33 33 34 34 34 33 34 35 35 35 36 36 36 37 37 36 35 36 36 36 36 36 36 37 38 38 39 40 41 42 43 43 44 44 45 45 46 47 47 48 49 49 50 50 51 51 51 51 51 50 50 50 50 49 49 48 48 47 46 46 44 41 38 33 29 26 24 23 22 22 22 23 23 25 26 27 28 29 30 29 28 28 27
32 32 31 31 31 30 30 30 30 29 29 29 29 29 29 29 29 29 29 30 30 30 30 30 30 30 30 30 31 31 32 32 33 33 34 34 33 33 33 34 35 35 34 35 35 35 37 39 40 41 42 43 44 44 45 45 46 47 48 49 50 51 51 52 52 52 52 52 51 51 51 50 50 49 49 48 47 47 46 45 44 42 38 34 30 26 24 24 23 23 23 23 24 26 27 28 29 30 30 29 29 28 28
30 30 30 29 29 28 28 28 27 27 27 26 26 26 26 26 26 26 26 26 27 27 27 27 27 27 27 27 27 27 28 29 29 29 30 31 31 31 31 32 32 32 31 32 33 33 34 37 38 39 40 41 42 43 44 45 46 47 48 49 51 52 52 52 52 52 52 52 51 51 51 50 50 50 49 48 47 46 45 44 43 41 37 33 30 27 25 24 24 24 24 24 25 26 27 29 30 30 30 30 29 29 29
27 27 26 26 26 25 25 25 25 24 24 24 24 24 24 24 24 24 24 24 24 24 24 24 24 24 25 25 25 25 25 26 27 27 27 28 29 30 30 29 29 29 28 30 31 31 31 33 35 36 36 38 40 41 42 44 45 47 48 50 51 51 52 52 52 51 51 51 51 51 51 51 50 49 49 48 47 46 44 43 41 39 36 32 30 27 25 25 24 24 25 25 26 27 28 30 30 31 31 30 30 30 30
24 24 23 24 23 23 23 23 23 23 22 22 23 22 22 22 23 23 23 23 23 23 23 23 23 23 24 24 24 24 24 24 25 26 26 26 27 28 29 28 28 28 27 27 28 29 28 29 31 33 33 35 37 39 41 43 44 46 47 48 49 50 51 51 51 51 51 51 51 51 51 50 50 49 48 47 46 44 43 42 39 37 34 31 29 27 26 26 25 25 26 26 27 28 29 31 31 31 31 32 32 32 32
23 23 23 23 22 23 22 22 22 22 22 23 23 23 23 23 23 23 23 24 24 24 24 24 24 24 24 24 24 24 24 25 25 25 26 26 26 26 26 27 28 28 27 27 26 27 27 28 30 31 32 32 35 37 38 40 42 43 45 46 48 49 50 51 51 52 52 52 52 51 51 50 49 48 47 46 45 43 42 40 38 35 33 30 29 28 27 27 27 27 27 27 28 29 30 31 32 32 32 33 33 34 34
23 23 23 23 23 23 23 23 23 23 23 24 24 24 24 24 24 24 25 25 25 25 25 25 25 25 25 25 25 26 26 26 26 26 27 27 27 27 27 27 28 28 28 28 28 28 28 29 29 30 30 30 32 34 35 37 38 40 42 44 45 47 48 50 51 52 52 52 52 51 50 49 48 47 46 45 44 43 41 39 36 34 32 30 30 29 29 29 29 28 28 28 29 30 31 32 32 33 34 35 36 36 36
24 24 24 24 24 24 25 25 25 25 25 25 25 25 26 26 26 26 26 26 26 27 27 27 27 27 27 28 28 28 28 28 28 28 28 29 29 29 29 29 29 29 29 29 29 29 29 30 29 29 29 29 30 31 32 33 35 37 39 41 43 45 46 48 49 50 51 51 51 51 50 49 48 47 46 45 44 43 41 38 36 33 32 31 31 31 31 31 30 29 29 29 30 31 32 33 33 34 36 37 38 38 38
25 25 25 26 26 26 26 26 26 27 27 27 27 27 27 28 28 28 28 28 28 29 29 29 29 29 30 30 30 30 30 30 30 31 31 31 31 31 31 31 31 31 31 30 30 30 30 30 30 30 30 30 30 30 30 31 33 34 37 39 41 42 44 46 47 48 49 50 50 50 50 49 48 47 46 45 44 42 40 38 35 33 32 31 32 32 33 32 31 30 30 30 31 32 33 34 35 37 38 39 40 40 39
27 27 27 27 27 28 28 28 28 28 29 29 29 29 29 29 29 30 30 30 30 31 31 31 31 31 32 32 32 32 32 32 32 32 32 32 32 32 32 32 32 31 31 31 31 31 31 31 31 31 31 31 31 30 30 31 32 33 35 37 39 41 42 44 45 47 48 48 49 49 49 48 47 46 45 44 42 41 39 37 35 33 32 32 32 33 33 32 31 30 30 31 32 33 34 35 37 39 40 41 41 40 39
28 28 29 29 29 29 29 30 30 30 30 30 31 31 31 31 31 32 32 32 32 32 32 33 33 33 33 33 33 32 32 32 32 32 33 33 33 33 33 33 33 33 32 32 32 32 32 32 32 32 32 32 32 32 31 31 32 33 34 36 37 39 41 42 44 45 47 47 47 47 47 46 45 44 43 42 41 39 38 36 35 33 33 33 33 33 33 32 31 30 30 31 32 34 35 37 38 40 40 41 41 41 39